M 352.25617527 +/- 0.0008           (J2000 ecliptic)
n   0.40740310 +/- 4.19e-5          Peri.  201.44212 +/- 0.00023
a   1.80213156 +/- 0.000123         Node   326.85676 +/- 0.000025
e   0.4648075 +/- 3.77e-5           Incl.    8.19356 +/- 0.00048
P   2.42/883.63d           H 24.6   G  0.15   U  6.0  
q 0.96448715 +/- 1.79e-6    Q 2.63977598 +/- 0.000249
From 94 observations 2019 Dec. 30-2020 Feb. 15; mean residual 0".48
Residuals in arcseconds: 
191230 F51  .93+  .56+    200214 C95  .43+  .82+    200215 850  .16+  .08+    
191230 F51  .21+  .33+    200214 C95  .11+  .02+    200215 850  .38-  .40+    
200101 F51  .27+  .07-    200214 C95  .30-  .07-    200215 850  .04+  .07-    
200101 F51  .40+  .08-    200214 I93  .27-  .13-    200215 850  .28+  .13-    
200101 F51  .39+  .54+    200214 I93  .28-  .16-    200215 850  .23-  .61+    
200101 F51  .28+  .02+    200214 I93  .19-  .03+    200215 850  .10+  .16+    
200102 F51  .28+  .06+    200214 203  .18-  .18-    200215 850  .60-  .62+    
200102 F51  .29+  .10+    200214 I93  .20-  .00     200215 850  .69-  .29+    
200102 F51  .49+  .08+    200214 C77  .01+  .12+    200215 718  .15-  .07-    
200102 F51  .22+  .01-    200214 203  .00   .05+    200215 718  .07+  .89+    
200118 F52  .26-  .06-    200214 C77  .16-  .16+    200215 718  .47+  .38+    
200118 F52  .30+  .24+    200214 958  .22-  .16-    200215 718  .18+  .41+    
200124 F51  .31-  .07+    200214 C77  .04-  .15-    200215 718  .30+  .59+    
200124 F51  .39-  .11+    200214 C77  .21-  .07+    200215 718  .38-  .79+    
200126 F51  .36-  .07+    200214 958  .21+  .02+    200215 718  .23-  .42+    
200126 F51  .35-  .08-    200214 C77  .23-  .27+    200215 718  .08-  .77+    
200126 F51  .29-  .04+    200214 958  .11+  .13-    200215 718  .26-  .16-    
200203 F52  .82-  .39-    200214 203  .01-  .14+    200215 718  .19+  1.5+    
200203 F52  .53-  .02+    200214 958  .02+  .03-    200215 T08  .01+  .03-    
200203 F52  .55-  .16-    200214 204  .27-  .03+    200215 T08  .35+  .39+    
200214 I41  2.0+  2.2-    200214 204  .17-  .01+    200215 T08  .28+  .34+    
200214 I41  2.3+  2.0-    200214 204  .18-  .09-    200215 T08  .15-  .25+    
200214 I41  1.5+  .26-    200214 204  .17-  .04+    200215 K61  .03-  .89-    
200214 I41  .91+  .11-    200214 204  .07+  .11+    200215 K61  .49+  .55-    
200214 L01  .25-  .08-    200214 595  .06+  .65-    200215 K61  .16-  .92-    
200214 L01  .26-  .06-    200214 595  .53+  .00     200215 K61  .55+  .33-    
200214 L01  .17-  .07-    200214 595  .06+  .24+    200215 K61  .33+  .46+    
200214 L01  .27-  .15-    200214 595  .01-  .12-    200215 K87  .35-  .60+    
200214 L01  .34-  .17-    200215 H21  .06-  .05+    200215 K87  .84-  .50-    
200214 L01  .24-  .04-    200215 H21  .03-  .12-    200215 K87  .64-  .31-    
200214 C95  .51-  .04+    200215 H21  .15-  .09+    
200214 C95  .56-  .22-    200215 850  .41-  .53+    

Ephemerides (geocentric):
Date (UTC) HH   RA              Dec         delta   r     elong  mag " sig PA
---- -- -- --  -------------   -----------  ------ ------ -----  --- ---- ---
2020 02 15 18  03 41 00.305   +37 15 18.45  .00984 .98861  95.2 17.5 .053 138
2020 02 15 19  03 38 48.632   +36 40 38.38  .00967 .98850  94.6 17.5 .057 141
2020 02 15 20  03 36 34.412   +36 04 35.89  .00951 .98839  94.0 17.5 .061 143
2020 02 15 21  03 34 17.593   +35 27 07.20  .00934 .98828  93.3 17.5 .066 145
2020 02 15 22  03 31 58.129   +34 48 08.38  .00918 .98818  92.7 17.4 .070 147
2020 02 15 23  03 29 35.969   +34 07 35.37  .00902 .98807  92.0 17.4 .076 149
2020 02 16 00  03 27 11.065   +33 25 23.96  .00886 .98796  91.3 17.4 .081 151
2020 02 16 01  03 24 43.369   +32 41 29.83  .00870 .98786  90.6 17.4 .087 153
2020 02 16 02  03 22 12.835   +31 55 48.55  .00855 .98775  89.8 17.4 .094 154
2020 02 16 03  03 19 39.414   +31 08 15.57  .00840 .98764  89.1 17.4 .101 156
2020 02 16 04  03 17 03.062   +30 18 46.27  .00825 .98754  88.3 17.4 .108 158
2020 02 16 05  03 14 23.735   +29 27 15.98  .00810 .98743  87.4 17.4 .117 159
2020 02 16 06  03 11 41.389   +28 33 40.01  .00796 .98733  86.6 17.4 .125 161
2020 02 16 07  03 08 55.983   +27 37 53.68  .00781 .98722  85.7 17.4 .135 162
2020 02 16 08  03 06 07.477   +26 39 52.36  .00768 .98712  84.8 17.4 .145 164
2020 02 16 09  03 03 15.836   +25 39 31.53  .00754 .98701  83.8 17.4 .155 165
2020 02 16 10  03 00 21.022   +24 36 46.85  .00741 .98691  82.8 17.4 .167 166
2020 02 16 11  02 57 23.005   +23 31 34.22  .00728 .98681  81.8 17.4 .179 168
2020 02 16 12  02 54 21.756   +22 23 49.83  .00715 .98670  80.8 17.4 .192 169
2020 02 16 13  02 51 17.248   +21 13 30.31  .00703 .98660  79.7 17.4 .207 170
2020 02 16 14  02 48 09.458   +20 00 32.78  .00692 .98649  78.6 17.5 .222 171
2020 02 16 15  02 44 58.370   +18 44 54.95  .00680 .98639  77.4 17.5 .238 172
2020 02 16 16  02 41 43.969   +17 26 35.30  .00670 .98629  76.2 17.5 .255 173
2020 02 16 17  02 38 26.245   +16 05 33.10  986432 .98619  75.0 17.5 .272 174
2020 02 16 18  02 35 05.195   +14 41 48.65  971770 .98608  73.8 17.6 .291 175
2020 02 16 19  02 31 40.819   +13 15 23.31  957895 .98598  72.5 17.6 .311 176
2020 02 16 20  02 28 13.125   +11 46 19.66  944842 .98588  71.2 17.7 .332 177
2020 02 16 21  02 24 42.124   +10 14 41.62  932646 .98578  69.9 17.7 .354 178
2020 02 16 22  02 21 07.838   +08 40 34.57  921342 .98568  68.6 17.8 .376 179
2020 02 16 23  02 17 30.291   +07 04 05.38  910961 .98558  67.2 17.8 .400   0
2020 02 17 00  02 13 49.518   +05 25 22.52  901537 .98547  65.8 17.9 .424   1
2020 02 17 01  02 10 05.559   +03 44 36.05  893100 .98537  64.4 18.0 .449   1
2020 02 17 02  02 06 18.464   +02 01 57.63  885678 .98527  63.0 18.0 .474   2
2020 02 17 03  02 02 28.287   +00 17 40.47  879296 .98517  61.6 18.1 .499   3
2020 02 17 04  01 58 35.096   -01 28 00.76  873978 .98507  60.2 18.2 .525   4
2020 02 17 05  01 54 38.963   -03 14 50.09  869743 .98497  58.8 18?? .550   4
2020 02 17 06  01 50 39.971   -05 02 30.44  866608 .98487  57.4 18?? .576   5
2020 02 17 07  01 46 38.210   -06 50 43.79  864583 .98477  56.1 18?? .601   6
2020 02 17 08  01 42 33.780   -08 39 11.50  863678 .98468  54.7 18?? .625   6
2020 02 17 09  01 38 26.790   -10 27 34.57  863895 .98458  53.4 18?? .649   7
2020 02 17 10  01 34 17.358   -12 15 33.91  865233 .98448  52.2 18?? .672   8
2020 02 17 11  01 30 05.610   -14 02 50.68  867688 .98438  50.9 19?? .694   8
2020 02 17 12  01 25 51.680   -15 49 06.56  871250 .98428  49.8 19?? .715   9
2020 02 17 13  01 21 35.712   -17 34 04.04  875906 .98418  48.7 19?? .735  10
2020 02 17 14  01 17 17.857   -19 17 26.64  881637 .98409  47.6 19?? .753  10
2020 02 17 15  01 12 58.273   -20 58 59.14  888424 .98399  46.6 19?? .770  11
2020 02 17 16  01 08 37.126   -22 38 27.73  896243 .98389  45.7 19?? .785  12
2020 02 17 17  01 04 14.588   -24 15 40.14  905065 .98380  44.9 19?? .799  12